Tracking 19903 objects as of 16-Oct-2019
HD Live streaming from Space Station
objects crossing your sky now

COSMOS 1275 DEB

Track COSMOS 1275 DEB now!
10-day predictions


NORAD ID: 12767
Int'l Code: 1981-053DL
Perigee: 850.7 km
Apogee: 906.2 km
Inclination: 83.0 °
Period: 102.4 minutes
Semi major axis: 7249 km
RCS: 0.055 m2 (small)
Launch date: June 4, 1981
Source: Commonwealth of Independent States (former USSR) (CIS)
Launch site: PLESETSK MISSILE AND SPACE COMPLEX (PKMTR)

Note: This is SATELLITE DEBRIS
aabbcc
Your satellite tracking list
Your tracking list is empty




NASA's NSSDC Master Catalog

Two Line Element Set (TLE):
1 12767U 81053DL  19289.29324192  .00000302  00000-0  17156-3 0  9999
2 12767  82.9635 220.2071 0038277  82.5029  70.8211 14.06517436948822
Source of the keplerian elements: AFSPC